Home   Weather   Mwanza   Past weeks

Flag for Tanzania Past Weather in Mwanza, Tanzania — Yesterday and Last 2 Weeks

Now
82 °F

Scattered clouds.


Feels Like: 85 °F
Forecast: 67 / 78 °F
Wind: 10 mph from Northwest

Location: Mwanza Airport

Current Time: Apr 24, 2017 at 4:14:05 pm

Latest Report: Apr 24, 2017 at 3:00 pm


Visibility: N/A

Pressure: 29.98 "Hg (26.32 "Hg at 1146m altitude)

Humidity: 58%

Dew Point: 66 °F

Location of MwanzaLocation

Past Weather in Mwanza — Graph

°F

Mwanza Temperature Yesterday

Maximum temperature yesterday: 84 °F (at 2:00 pm)
Minimum temperature yesterday: 68 °F (at 7:00 am)
Average temperature yesterday: 77 °F

High & Low Weather Summary for the Past Weeks

 TemperatureHumidityPressure
High90 °F (Apr 14, 3:00 pm)100% (Apr 19, 7:00 am)30.12 "Hg (Apr 19, 7:00 am)
Low66 °F (Apr 10, 7:00 am)36% (Apr 14, 3:00 pm)29.68 "Hg (Apr 10, 9:00 am)
Average77 °F70%29.98 "Hg
* Reported Apr 9 3:00 pm — Apr 24 3:00 pm, Mwanza, Weather by CustomWeather, © 2017

Note: Actual official high and low records may vary slightly from our data, if they occured in-between our weather recording intervals... More about our weather records

Advertising

Mwanza Weather History for the Previous 24 Hours

Scroll right to see more
 ConditionsComfort  
Time TempWeatherWind HumidityBarometerVisibility
3:00 pm
Mon, Apr 24
82 °FScattered clouds.10 mph58%29.98 "HgN/A
2:00 pm82 °FScattered clouds.12 mph58%30.01 "HgN/A
1:00 pm81 °FPartly sunny.8 mph66%30.04 "HgN/A
12:00 pm82 °FWarm.N/A55%30.07 "Hg4 mi
11:00 am79 °FPartly sunny.12 mph61%30.07 "HgN/A
10:00 am75 °FPartly sunny.7 mph69%30.09 "HgN/A
9:00 am73 °FPartly sunny.No wind83%30.07 "HgN/A
8:00 am70 °FPartly sunny.No wind94%30.07 "HgN/A
7:00 am68 °FLight rain. Partly sunny.No wind94%30.01 "HgN/A
6:00 am68 °FLight rain. Passing clouds.No wind94%30.01 "HgN/A
12:00 am68 °FPassing clouds.No wind94%29.98 "HgN/A
11:00 pm
Sun, Apr 23
70 °FPassing clouds.No wind88%30.01 "HgN/A
10:00 pm72 °FPassing clouds.No wind78%29.98 "HgN/A
9:00 pm73 °FThunderstorms. Passing clouds.No wind78%29.98 "HgN/A
7:00 pm79 °FPassing clouds.No wind65%29.92 "HgN/A
6:00 pm82 °FPartly sunny.6 mph55%29.92 "HgN/A
5:00 pm84 °FPartly sunny.12 mph45%29.92 "HgN/A
4:00 pm84 °FPartly sunny.12 mph48%29.95 "HgN/A
Weather by CustomWeather, © 2017

See weather overviewHow to use our weather pages